Meteo Giornale » Osservazioni meteo Italia » Torino-Caselle

ore: 14:50 - Osservazioni Meteo Torino-Caselle
Lat. 45° 13' N Lon. 7° 39' E Alt. 301 metri s.l.m.

sereno Europe/Rome

28 °C

Sereno

Temp. 24 Ore

14 °C

28 °C

Nord-Est

7.4 Km/h

Dew point 10 °C

Umidità 32 %

Visibilità  10 Km

Il sole sorge alle ore 05:39

Il sole tramonta alle ore 21:20

Data e Ora Cielo e Fenomeni T °C DP °C Um. % Pres. hPa Vis. km Vento km/h
Oggi h: 14:50 sereno Sereno 28 10 32 1015 10 NE 7.4
Oggi h: 14:20 sereno Sereno 27 10 34 1015 10 E 7.4
Oggi h: 13:50 sereno Sereno 27 12 39 1015 10 N 5.5
Oggi h: 13:20 sereno Sereno 27 13 42 1015 10 N 5.5
Oggi h: 12:50 sereno Sereno 26 12 41 1016 10 E 7.4
Oggi h: 12:20 sereno Sereno 25 12 44 1016 10 S/SE 7.4
Oggi h: 11:50 sereno Sereno 25 13 47 1016 10 N 5.5
Oggi h: 11:20 sereno Sereno 24 13 50 1016 10 N 3.7
Oggi h: 10:50 sereno Sereno 23 14 56 1016 10 N 3.7
Oggi h: 10:20 sereno Sereno 22 13 56 1016 10 N 3.7
Oggi h: 09:50 sereno Sereno 21 14 64 1016 10 N 3.7
Oggi h: 09:20 sereno Sereno 20 14 68 1016 10 N 3.7
Oggi h: 08:50 sereno Sereno 19 13 68 1016 10 N 5.5
Oggi h: 08:20 sereno Sereno 18 12 67 1016 10 O 7.4
Oggi h: 07:50 sereno Sereno 17 11 67 1015 10 N 5.5
Oggi h: 07:20 sereno Sereno 16 12 77 1015 10 N 3.7
Oggi h: 06:50 sereno Sereno 16 11 72 1015 10 O/NO 7.4
Oggi h: 06:20 sereno Sereno 14 11 82 1015 10 N 3.7
Oggi h: 05:50 sereno Sereno 15 11 76 1015 10 N 5.5
Oggi h: 05:20 sereno Sereno 15 11 76 1015 10 N 1.8
Oggi h: 04:50 sereno Sereno 15 13 87 1015 10 N 5.5
Oggi h: 04:20 sereno Sereno 15 12 82 1015 10 O/NO 7.4
Oggi h: 03:50 sereno Sereno 16 13 82 1015 10 N 3.7
Oggi h: 03:20 sereno Sereno 15 14 93 1015 10 N 1.8
Oggi h: 02:50 sereno Sereno 16 15 93 1015 10 N 5.5
Oggi h: 02:20 sereno Sereno 16 15 93 1015 10 NO 9.3
Oggi h: 01:50 sereno Sereno 16 14 87 1015 10 N 9.3
Oggi h: 01:20 sereno Sereno 16 15 93 1015 10 N/NO 9.3
Oggi h: 00:50 sereno Sereno 17 15 88 1015 10 N 5.5
Oggi h: 00:20 sereno Sereno 16 15 93 1015 10 SE 7.4
Ieri h: 23:50 sereno Sereno 17 16 93 1015 10 N 5.5
Ieri h: 23:20 sereno Sereno 17 16 93 1015 10 S/SO 7.4
Ieri h: 22:50 sereno Sereno 18 15 82 1015 10 N 3.7
Ieri h: 22:20 poco_nuvoloso Poco Nuvoloso 18 15 82 1015 10 N 5.5
Ieri h: 21:50 poco_nuvoloso Poco Nuvoloso 18 15 82 1015 10 NO 11.1
Ieri h: 21:20 molto_nuvoloso Molto Nuvoloso 18 16 88 1014 10 N 5.5
Ieri h: 20:50 molto_nuvoloso Molto Nuvoloso 19 17 88 1014 10 E/NE 11.1
Ieri h: 20:20 molto_nuvoloso Molto Nuvoloso 19 16 82 1014 10 NE 14.8
Ieri h: 19:50 nuvoloso_temporali Temporale con Pioggia 23 14 56 1013 8 N/NO 29.6
Ieri h: 19:20 nuvoloso_temporali Temporale nelle Vicinanze 26 18 61 1013 10 N 5.5
Ieri h: 18:50 molto_nuvoloso Molto Nuvoloso 26 18 61 1012 10 N 5.5
Ieri h: 18:20 molto_nuvoloso Molto Nuvoloso 26 17 57 1012 10 E 11.1
Ieri h: 17:50 nuvoloso Nuvoloso 27 17 54 1013 10 E 9.3
Ieri h: 17:20 nuvoloso Nuvoloso 27 17 54 1013 10 E/SE 9.3
Ieri h: 16:20 nuvoloso Nuvoloso 27 15 47 1013 10 N 7.4
Ieri h: 15:50 nuvoloso Nuvoloso 27 16 50 1014 10 N 3.7